Theta_e
315 316 317 316 315 311 310 310 309 310 311 307 302 301 301 302 302 302 302 304 306 307 307 310 314 312 311 311 314 315 315 315 316 317 317 316 318 315 316 316 316 317 318 318 318
311 315 316 317 315 313 312 312 313 312 311 314 313 302 302 302 302 302 304 303 304 305 309 310 313 311 314 314 314 316 315 315 316 317 318 315 316 315 315 316 317 317 317 317 317
307 311 315 315 316 314 315 315 315 314 312 312 311 308 302 302 303 305 305 303 304 306 311 309 312 313 315 315 315 315 316 315 315 315 314 315 315 314 316 318 317 318 317 315 316
301 306 310 314 316 316 317 316 315 315 315 311 312 308 306 301 308 312 310 305 304 306 312 312 312 314 315 316 315 315 314 313 314 313 314 315 314 314 314 316 315 315 315 314 315
301 299 307 311 316 316 317 316 315 314 313 314 313 312 309 302 305 309 308 305 306 311 314 312 313 314 314 315 315 315 314 313 313 312 312 312 314 315 314 315 315 314 315 315 314
301 300 303 308 313 315 316 317 314 313 314 314 314 314 312 304 305 309 307 305 307 312 313 311 313 312 313 314 315 314 314 314 314 314 313 314 316 314 316 316 316 316 316 316 317
302 301 301 305 309 312 316 316 314 313 314 314 315 316 316 305 305 311 311 308 312 310 310 312 313 313 312 314 313 314 315 315 315 314 316 313 318 316 317 315 315 315 315 316 318
302 300 300 301 306 310 314 317 314 314 315 315 315 315 316 313 311 310 311 312 311 311 310 312 313 313 313 313 313 316 316 317 316 314 313 314 321 319 315 316 318 318 318 318 318
302 300 299 299 302 309 311 313 315 315 315 315 315 315 315 312 308 309 309 311 310 309 310 312 313 314 314 315 316 315 319 317 318 314 315 314 321 318 315 317 318 319 319 318 317
301 300 298 299 298 308 309 313 314 315 315 315 314 313 312 310 307 310 309 310 311 311 312 313 313 315 315 315 322 319 317 317 319 316 315 318 318 319 318 317 317 318 317 315 314
300 299 297 298 296 299 307 310 313 313 315 313 312 310 312 308 307 310 311 311 313 313 313 312 314 317 314 314 313 314 316 318 317 314 316 318 317 318 318 317 316 314 314 313 313
300 297 297 296 295 297 305 309 310 311 314 311 311 310 307 307 308 309 312 312 313 312 312 313 313 313 313 313 314 314 315 316 315 314 315 317 318 318 316 313 312 312 311 311 312
297 296 296 296 294 294 301 308 309 309 308 309 311 311 308 308 307 310 312 311 311 312 313 312 311 311 312 313 314 314 315 315 314 314 313 315 324 320 314 312 311 309 310 309 310
295 294 292 291 292 295 299 307 309 308 313 309 310 311 310 308 307 311 312 311 310 311 311 311 310 310 311 312 313 314 313 313 313 317 324 315 336 322 315 314 310 307 308 309 308
291 290 290 290 296 297 300 304 306 309 317 308 310 310 309 310 309 310 311 309 311 310 311 311 312 311 312 311 311 313 312 314 315 317 318 318 325 325 313 315 309 306 306 306 307
290 290 291 296 297 299 303 305 306 310 313 310 309 310 311 310 309 310 311 307 309 310 308 309 307 311 312 310 311 310 313 313 313 316 324 317 319 326 312 306 307 305 304 303 304
290 290 293 297 299 302 305 307 308 311 302 310 310 311 312 312 310 311 311 309 309 309 311 309 309 309 309 312 311 311 315 322 322 323 324 310 314 318 305 304 303 302 302 301 301
291 291 295 297 299 302 305 305 306 302 306 309 310 312 313 312 311 311 311 309 309 309 308 307 306 310 310 313 315 313 315 321 324 319 316 310 316 313 304 302 301 300 300 299 299
292 291 296 298 298 302 304 306 304 301 307 310 311 311 313 312 312 311 311 311 310 308 313 308 309 308 308 308 312 314 315 310 311 306 314 314 312 305 304 303 300 299 299 297 297
293 292 295 297 298 301 303 302 304 304 306 309 311 311 313 313 313 313 312 311 312 309 308 311 312 307 307 308 308 312 311 314 314 316 314 310 310 312 307 303 300 298 297 296 295
292 294 293 296 297 300 305 301 302 303 304 309 312 313 312 313 313 313 313 311 310 310 311 312 314 309 308 311 312 311 312 310 313 311 310 310 311 305 303 300 299 297 295 295 294
293 295 293 297 298 296 300 299 300 300 301 307 308 309 311 311 313 314 312 310 309 310 312 313 314 313 310 306 306 308 311 311 312 311 309 310 311 301 299 297 297 296 294 294 293
293 293 294 296 300 298 296 297 297 299 298 302 305 306 307 308 312 309 309 306 306 310 312 313 313 318 315 313 309 309 309 309 309 310 311 313 311 300 298 297 295 295 294 293 292
291 295 293 294 289 295 296 296 298 294 295 299 301 302 306 305 304 306 307 304 304 303 308 310 311 314 317 314 311 310 308 308 310 314 312 311 308 302 300 299 296 294 293 293 292
290 288 288 293 292 292 293 294 295 294 294 295 299 300 303 304 302 302 302 306 303 300 304 307 312 311 311 310 310 309 309 308 310 311 312 312 309 305 301 298 295 294 293 292 292
290 289 288 289 288 291 292 293 292 290 292 295 295 296 299 297 296 302 299 299 298 300 305 305 309 308 308 309 308 310 309 309 309 309 310 308 303 299 297 295 295 293 293 292 291
289 289 289 287 289 291 291 292 291 290 291 290 293 295 293 291 290 290 291 292 294 296 299 304 308 309 311 306 309 311 304 304 303 300 302 310 301 297 297 295 294 292 291 290 290
Wind_Speed
9 7 17 12 6 4 4 4 2 2 1 3 7 8 8 8 11 10 13 8 23 14 17 13 12 11 12 10 5 4 4 6 4 6 1 2 3 3 2 3 4 5 5 6 6
10 7 10 19 12 7 8 6 5 3 3 3 2 7 8 8 9 11 7 10 14 18 13 18 14 14 6 6 5 5 5 7 3 5 2 2 1 1 2 3 5 8 12 14 12
21 8 5 8 18 12 9 9 8 5 4 4 5 4 5 5 5 6 11 15 13 14 12 16 14 10 5 4 5 3 3 4 2 5 3 3 3 3 3 7 12 10 5 10 11
20 19 8 12 18 20 16 12 11 8 7 7 6 5 3 8 5 5 6 15 15 17 18 19 18 9 7 8 9 5 8 2 1 5 3 3 2 5 9 15 10 12 14 16 15
20 25 14 11 13 24 21 18 13 11 10 7 5 4 4 5 3 3 5 18 17 20 20 18 20 9 7 6 5 6 3 5 7 9 7 6 12 8 16 20 19 19 22 21 18
16 20 17 13 15 18 19 22 16 12 13 8 6 5 4 3 4 4 9 14 18 18 19 17 12 10 3 3 8 2 9 7 5 7 5 4 8 1 4 2 7 9 10 11 10
12 20 16 19 12 15 23 22 18 12 10 9 7 6 5 6 5 7 10 12 14 18 18 14 7 10 4 3 2 0 4 5 8 2 3 3 8 9 10 10 10 9 9 11 10
12 18 17 12 17 14 20 21 20 17 14 11 8 5 3 5 7 9 11 16 17 14 13 14 9 9 3 3 1 2 3 4 3 1 1 2 7 2 2 1 5 9 11 11 14
11 16 13 12 21 14 14 16 21 17 16 11 9 7 3 7 10 11 12 14 16 14 13 13 12 5 7 3 2 3 3 6 1 1 2 5 6 1 2 12 19 15 14 15 21
13 15 12 13 12 19 10 16 18 19 16 12 6 5 6 6 13 13 13 15 12 15 13 9 3 3 4 5 5 4 4 5 4 2 4 8 15 16 15 12 17 20 17 13 13
11 15 16 13 8 17 12 12 10 7 23 5 9 3 12 12 15 14 15 17 18 9 6 4 7 13 12 8 1 3 1 1 2 1 3 4 12 15 20 12 13 15 14 13 11
16 14 13 14 9 14 17 6 4 7 6 5 14 8 14 15 7 16 19 7 10 8 9 5 13 8 6 7 8 3 2 2 1 2 3 7 17 11 7 10 17 20 19 16 15
12 12 10 8 8 12 20 13 8 10 4 4 10 6 11 10 5 18 20 10 5 8 11 8 1 13 9 9 10 10 9 4 3 3 1 8 6 3 5 10 17 21 19 18 19
5 4 5 6 8 11 20 19 4 5 3 4 5 5 10 8 3 16 18 7 3 9 7 4 4 11 11 7 10 9 8 6 3 2 3 4 4 5 3 7 16 24 24 22 21
4 2 3 6 8 13 16 22 9 3 7 7 5 4 12 6 15 10 12 3 8 7 6 4 6 10 6 6 8 1 4 6 3 3 2 1 3 2 4 4 16 22 23 23 21
2 2 6 10 12 13 24 27 11 1 4 5 5 6 10 4 3 9 9 3 6 5 3 3 1 1 2 3 7 10 6 5 3 1 3 2 3 0 4 6 9 17 20 21 21
6 5 10 14 13 15 26 25 4 2 1 7 5 8 16 7 6 8 12 8 6 7 7 1 1 0 3 6 4 2 7 3 3 3 3 2 3 3 4 6 9 12 17 19 20
8 6 11 15 15 18 19 4 4 2 4 4 5 14 8 11 5 7 13 9 3 2 7 9 5 8 5 2 6 8 3 3 5 4 3 2 5 1 7 7 8 11 13 17 20
5 7 9 13 12 14 13 5 4 6 4 9 12 11 4 6 6 6 11 9 7 6 1 7 3 2 0 2 3 6 6 2 6 2 1 3 3 6 7 9 13 15 18 20 19
4 9 7 13 13 9 3 4 1 1 3 3 7 5 7 10 5 8 11 2 3 6 6 2 4 0 1 2 2 4 7 3 1 5 5 3 3 1 6 7 10 15 18 17 17
4 4 4 8 8 4 5 3 3 1 3 2 4 5 7 6 4 6 9 2 2 5 9 2 0 2 2 7 9 4 4 1 1 1 3 4 3 5 4 5 7 12 14 15 16
3 2 3 11 3 4 3 3 2 3 7 6 4 7 5 5 4 2 4 5 6 1 9 3 2 4 3 1 1 1 3 6 4 4 1 2 2 3 6 6 7 10 11 13 15
4 2 8 5 3 3 3 4 8 6 7 5 4 5 6 4 4 3 4 5 10 4 5 7 3 4 2 2 1 4 4 2 3 2 6 4 2 5 7 7 7 9 10 12 15
3 2 8 10 6 4 3 4 5 9 6 6 4 3 3 5 9 4 3 6 5 8 8 5 2 2 4 3 2 4 4 5 8 4 5 8 6 10 6 6 6 8 9 11 13
5 3 2 3 6 7 3 3 4 4 3 11 5 7 1 4 3 4 4 2 6 12 4 3 2 2 3 3 3 2 2 2 10 10 7 3 3 11 7 6 6 5 6 9 12
5 5 8 5 3 5 8 5 5 2 6 5 8 9 5 6 3 4 2 4 2 7 3 3 2 1 2 4 2 2 1 2 0 2 3 4 4 5 8 8 5 5 7 9 10
15 12 6 9 3 3 3 3 3 3 10 9 4 6 14 6 5 6 5 5 3 2 2 2 1 1 2 3 3 3 1 1 3 4 3 4 4 10 6 7 6 6 7 8 10
Wind_Direction
236 204 243 258 248 227 172 150 151 175 185 219 207 205 188 196 224 210 232 201 190 204 214 198 178 185 178 177 187 168 224 222 203 198 186 194 212 194 219 224 216 222 235 244 258
266 229 244 236 229 207 185 193 197 196 244 233 221 213 206 187 221 237 223 204 200 202 192 189 175 167 184 168 179 232 218 208 216 205 205 225 267 283 229 197 241 248 255 262 267
260 273 253 270 226 212 206 215 211 217 235 252 248 241 214 193 189 227 201 210 196 187 179 188 185 168 177 152 193 198 252 208 212 228 239 253 250 233 234 260 241 258 257 263 264
265 259 280 238 234 211 214 220 214 220 226 239 242 230 216 173 203 175 184 198 185 184 172 170 173 183 178 179 191 210 231 229 241 219 207 243 285 254 224 251 274 273 264 268 262
265 265 254 216 212 218 223 217 211 222 216 220 216 224 198 188 199 108 131 173 180 169 180 171 170 174 197 184 158 229 237 218 246 250 258 266 258 269 266 270 272 266 269 266 257
259 260 260 248 193 181 180 206 208 212 216 202 205 214 192 221 189 155 159 169 176 174 173 177 176 171 157 175 206 231 238 254 274 258 252 264 274 7 262 292 289 270 271 266 265
230 257 264 236 221 195 193 196 201 200 196 212 221 203 192 190 172 181 165 171 165 185 182 178 156 168 151 171 209 188 291 246 226 250 247 238 258 232 265 285 286 272 278 263 273
220 248 257 265 230 222 202 200 203 196 192 206 209 193 225 205 182 172 171 167 177 184 174 177 165 164 122 123 48 216 244 249 85 124 32 54 264 202 206 126 328 303 288 287 291
203 238 246 271 235 215 204 202 205 201 197 198 198 183 213 190 174 168 168 170 159 160 166 166 163 155 141 166 185 184 258 229 263 55 65 203 280 218 160 311 307 306 307 301 303
194 220 220 253 243 220 202 193 177 176 166 175 191 186 213 186 167 166 160 154 143 150 131 144 116 158 151 179 217 182 211 223 197 133 219 230 263 290 299 309 309 316 318 326 334
203 210 210 235 230 214 201 149 164 183 169 184 196 144 148 149 156 161 157 149 142 146 151 124 191 206 192 199 316 126 209 203 120 51 278 266 290 289 300 346 5 360 348 355 4
160 190 206 234 210 210 189 185 179 145 161 163 151 134 149 147 127 162 159 138 154 161 125 148 222 195 174 184 217 162 145 270 299 348 310 315 297 297 23 61 50 29 22 12 5
158 184 212 244 246 207 183 187 143 130 117 165 191 159 160 162 135 169 171 143 140 152 174 171 147 172 163 185 205 225 229 190 247 306 154 303 282 30 74 98 44 31 24 21 12
137 166 216 226 213 189 179 200 161 135 137 176 181 190 172 154 90 167 171 147 140 174 166 225 131 157 179 183 198 230 218 187 220 226 275 337 290 311 18 120 31 16 17 15 10
100 136 181 181 174 161 174 184 139 67 161 140 138 188 159 155 130 173 166 134 157 141 180 169 163 150 177 208 184 193 144 141 125 164 297 193 249 229 18 3 5 5 5 10 11
59 139 154 151 164 166 157 169 150 180 137 160 134 158 153 134 76 138 166 117 115 94 41 85 9 168 107 65 186 141 101 73 78 155 235 149 240 283 11 337 338 356 7 10 12
68 116 153 149 164 158 154 140 95 217 298 155 158 166 166 144 122 162 173 169 158 140 170 139 135 307 153 106 85 248 167 142 184 193 240 33 222 2 77 21 2 356 8 14 19
62 98 152 163 172 163 165 123 155 170 186 128 143 155 170 150 131 162 163 182 227 121 143 168 189 187 171 197 191 196 241 216 207 194 154 124 227 133 95 62 38 28 27 29 28
77 106 136 160 178 171 167 189 147 191 137 133 135 154 144 153 136 149 183 189 205 204 195 170 138 47 350 137 183 171 217 63 108 61 278 188 131 144 136 52 35 31 35 29 31
106 86 77 158 196 169 129 96 88 343 357 196 153 165 159 167 139 173 173 178 196 194 301 142 122 79 86 152 72 248 150 149 260 173 211 198 248 136 191 24 26 28 28 26 31
117 88 41 170 183 98 164 99 113 318 2 2 141 122 137 147 147 165 169 79 24 164 196 162 36 106 170 208 179 156 193 112 190 246 190 171 157 10 85 59 44 38 32 28 29
67 71 55 153 59 47 110 108 143 20 26 51 71 63 113 129 98 108 121 24 326 266 183 159 52 162 186 35 348 6 218 190 197 188 268 335 149 103 100 81 61 52 40 35 37
80 76 59 147 131 111 84 84 56 38 28 41 56 25 58 73 120 101 100 13 31 55 143 161 180 143 162 219 131 216 191 182 88 89 194 180 154 150 124 89 69 63 48 41 37
107 83 41 61 46 80 107 60 103 32 56 54 60 64 98 61 37 99 99 32 21 24 42 84 153 264 236 68 75 168 196 205 216 225 231 239 146 188 166 114 76 62 54 45 38
72 84 50 67 36 78 68 59 82 48 36 26 57 41 115 105 75 66 43 95 43 0 37 69 104 133 74 100 63 73 74 204 223 241 238 166 99 164 153 124 94 65 46 37 29
109 129 89 61 73 52 15 31 65 93 8 26 86 59 95 95 43 120 35 23 26 353 61 1 103 112 74 59 76 142 49 226 300 347 278 151 111 134 125 118 96 60 44 38 30
95 96 103 23 36 88 31 105 141 165 46 62 101 91 64 76 81 84 69 78 64 44 49 32 96 66 108 20 143 201 24 330 104 50 342 225 87 153 142 119 98 88 65 42 24